TIME,�����g�[���mL�n,�t���O,�����g�[��mL�n,�t���O,�����g�[���mMJ�n,�t���O,�����g�[��mMJ�n,�t���O
2003/2/1 0:00,0,0,0,0,0,0,0,0
2003/2/1 0:15,0,0,0,0,0,0,0,0
2003/2/1 0:30,0,0,0,0,0,0,0,0
2003/2/1 0:45,0,0,0,0,0,0,0,0
2003/2/1 1:00,0,0,0,0,0,0,0,0
2003/2/1 1:15,0,0,0,0,0,0,0,0
2003/2/1 1:30,0,0,0,0,0,0,0,0
2003/2/1 1:45,0,0,0,0,0,0,0,0
2003/2/1 2:00,0,0,0,0,0,0,0,0
2003/2/1 2:15,0,0,0,0,0,0,0,0
2003/2/1 2:30,0,0,0,0,0,0,0,0
2003/2/1 2:45,0,0,0,0,0,0,0,0
2003/2/1 3:00,0,0,0,0,0,0,0,0
2003/2/1 3:15,0,0,0,0,0,0,0,0
2003/2/1 3:30,0,0,0,0,0,0,0,0
2003/2/1 3:45,0,0,0,0,0,0,0,0
2003/2/1 4:00,0,0,0,0,0,0,0,0
2003/2/1 4:15,0,0,0,0,0,0,0,0
2003/2/1 4:30,0,0,0,0,0,0,0,0
2003/2/1 4:45,0,0,0,0,0,0,0,0
2003/2/1 5:00,0,0,0,0,0,0,0,0
2003/2/1 5:15,0,0,0,0,0,0,0,0
2003/2/1 5:30,0,0,0,0,0,0,0,0
2003/2/1 5:45,0,0,0,0,0,0,0,0
2003/2/1 6:00,0,0,0,0,0,0,0,0
2003/2/1 6:15,0,0,0,0,0,0,0,0
2003/2/1 6:30,0.00492492,0,0,0,0.722978256,0,0,0
2003/2/1 6:45,0.011126115,0,0,0,1.633313682,0,0,0
2003/2/1 7:00,0.011126115,0,0.025327628,0,1.633313682,0,3.718095718,0
2003/2/1 7:15,0.011126115,0,0.028171948,0,1.633313682,0,4.135641894,0
2003/2/1 7:30,0.011126115,0,0.026412638,0,1.633313682,0,3.877375187,0
2003/2/1 7:45,0.011126115,0,0.019003,0,1.633313682,0,2.7896404,0
2003/2/1 8:00,0.011126115,0,0.013202488,0,1.633313682,0,1.938125165,0
2003/2/1 8:15,0.011125042,0,0.01175734,0,1.633156239,0,1.725977512,0
2003/2/1 8:30,0.011126115,0,0.01175734,0,1.633313682,0,1.725977512,0
2003/2/1 8:45,0.011125042,0,0.003546205,0,1.633156239,0,0.520582894,0
2003/2/1 9:00,0.011126115,0,0,0,1.633313682,0,0,0
2003/2/1 9:15,0.011000633,0,0,0,1.614892851,0,0,0
2003/2/1 9:30,0.009288923,0,0,0,1.363613823,0,0,0
2003/2/1 9:45,0.008342978,0,0,0,1.224749097,0,0,0
2003/2/1 10:00,0.009235298,0,0,0,1.355741673,0,0,0
2003/2/1 10:15,0.005618828,0,0,0,0.824843877,0,0,0
2003/2/1 10:30,0.00206778,0,0,0,0.303550104,0,0,0
2003/2/1 10:45,0,0,0,0,0,0,0,0
2003/2/1 11:00,0,0,0,0,0,0,0,0
2003/2/1 11:15,0,0,0,0,0,0,0,0
2003/2/1 11:30,0,0,0,0,0,0,0,0
2003/2/1 11:45,0,0,0,0,0,0,0,0
2003/2/1 12:00,0,0,0,0,0,0,0,0
2003/2/1 12:15,0,0,0,0,0,0,0,0
2003/2/1 12:30,0,0,0,0,0,0,0,0
2003/2/1 12:45,0,0,0,0,0,0,0,0
2003/2/1 13:00,0,0,0,0,0,0,0,0
2003/2/1 13:15,0,0,0.015896622,0,0,0,2.333624183,0
2003/2/1 13:30,0,0,0.007590472,0,0,0,1.114281363,0
2003/2/1 13:45,0,0,0,0,0,0,0,0
2003/2/1 14:00,0,0,0,0,0,0,0,0
2003/2/1 14:15,0,0,0,0,0,0,0,0
2003/2/1 14:30,0,0,0,0,0,0,0,0
2003/2/1 14:45,0,0,0,0,0,0,0,0
2003/2/1 15:00,0,0,0,0,0,0,0,0
2003/2/1 15:15,0,0,0,0,0,0,0,0
2003/2/1 15:30,0,0,0,0,0,0,0,0
2003/2/1 15:45,0,0,0,0,0,0,0,0
2003/2/1 16:00,0,0,0,0,0,0,0,0
2003/2/1 16:15,0,0,0,0,0,0,0,0
2003/2/1 16:30,0.000397897,0,0,0,0.058411353,0,0,0
2003/2/1 16:45,0.011126115,0,0,0,1.633313682,0,0,0
2003/2/1 17:00,0.011126115,0,0,0,1.633313682,0,0,0
2003/2/1 17:15,0.011125042,0,0,0,1.633156239,0,0,0
2003/2/1 17:30,0.011126115,0,0,0,1.633313682,0,0,0
2003/2/1 17:45,0,0,0,0,0,0,0,0
2003/2/1 18:00,0,0,0,0,0,0,0,0
2003/2/1 18:15,0,0,0,0,0,0,0,0
2003/2/1 18:30,0,0,0.001601462,0,0,0,0.235094695,0
2003/2/1 18:45,0,0,0.00828776,0,0,0,1.216643168,0
2003/2/1 19:00,0.007389525,0,0.006756793,0,1.08478227,0,0.991897139,0
2003/2/1 19:15,0.011125042,0,0.005947633,0,1.633156239,0,0.873112451,0
2003/2/1 19:30,0.003708705,0,0.006575957,0,0.544437894,0,0.965350561,0
2003/2/1 19:45,0,0,0.007244128,0,0,0,1.063437917,0
2003/2/1 20:00,0,0,0.005947633,0,0,0,0.873112451,0
2003/2/1 20:15,0.004605315,0,0.001983055,0,0.676060242,0,0.291112474,0
2003/2/1 20:30,0.011125042,0,0,0,1.633156239,0,0,0
2003/2/1 20:45,0.011126115,0,0,0,1.633313682,0,0,0
2003/2/1 21:00,0,0,0,0,0,0,0,0
2003/2/1 21:15,0,0,0,0,0,0,0,0
2003/2/1 21:30,0,0,0,0,0,0,0,0
2003/2/1 21:45,0,0,0,0,0,0,0,0
2003/2/1 22:00,0,0,0,0,0,0,0,0
2003/2/1 22:15,0,0,0,0,0,0,0,0
2003/2/1 22:30,0,0,0,0,0,0,0,0
2003/2/1 22:45,0,0,0,0,0,0,0,0
2003/2/1 23:00,0.0063921,0,0,0,0.93836028,0,0,0
2003/2/1 23:15,0.003708705,0,0,0,0.544437894,0,0,0
2003/2/1 23:30,0,0,0,0,0,0,0,0
2003/2/1 23:45,0,0,0,0,0,0,0,0
2003/2/2 0:00,0,0,0,0,0,0,0,0
2003/2/2 0:15,0,0,0,0,0,0,0,0
2003/2/2 0:30,0,0,0,0,0,0,0,0
2003/2/2 0:45,0,0,0,0,0,0,0,0
2003/2/2 1:00,0,0,0,0,0,0,0,0
2003/2/2 1:15,0,0,0,0,0,0,0,0
2003/2/2 1:30,0,0,0,0,0,0,0,0
2003/2/2 1:45,0,0,0,0,0,0,0,0
2003/2/2 2:00,0,0,0,0,0,0,0,0
2003/2/2 2:15,0,0,0,0,0,0,0,0
2003/2/2 2:30,0,0,0,0,0,0,0,0
2003/2/2 2:45,0,0,0,0,0,0,0,0
2003/2/2 3:00,0,0,0,0,0,0,0,0
2003/2/2 3:15,0,0,0,0,0,0,0,0
2003/2/2 3:30,0,0,0,0,0,0,0,0
2003/2/2 3:45,0,0,0,0,0,0,0,0
2003/2/2 4:00,0,0,0,0,0,0,0,0
2003/2/2 4:15,0,0,0,0,0,0,0,0
2003/2/2 4:30,0,0,0,0,0,0,0,0
2003/2/2 4:45,0,0,0,0,0,0,0,0
2003/2/2 5:00,0,0,0,0,0,0,0,0
2003/2/2 5:15,0,0,0,0,0,0,0,0
2003/2/2 5:30,0,0,0,0,0,0,0,0
2003/2/2 5:45,0,0,0,0,0,0,0,0
2003/2/2 6:00,0,0,0,0,0,0,0,0
2003/2/2 6:15,0,0,0,0,0,0,0,0
2003/2/2 6:30,0,0,0,0,0,0,0,0
2003/2/2 6:45,0.009248168,0,0,0,1.357630989,0,0,0
2003/2/2 7:00,0.011127188,0,0.005261073,0,1.633471125,0,0.772325443,0
2003/2/2 7:15,0.011126115,0,0.03086455,0,1.633313682,0,4.53091594,0
2003/2/2 7:30,0.011127188,0,0.024946035,0,1.633471125,0,3.662077939,0
2003/2/2 7:45,0.011126115,0,0.020710205,0,1.633313682,0,3.040258094,0
2003/2/2 8:00,0.011126115,0,0.016615365,0,1.633313682,0,2.439135582,0
2003/2/2 8:15,0.011125042,0,0.01569893,0,1.633156239,0,2.304602924,0
2003/2/2 8:30,0.011126115,0,0.0052105,0,1.633313682,0,0.7649014,0
2003/2/2 8:45,0.011125042,0,0,0,1.633156239,0,0,0
2003/2/2 9:00,0.011126115,0,0,0,1.633313682,0,0,0
2003/2/2 9:15,0.011125042,0,0,0,1.633156239,0,0,0
2003/2/2 9:30,0,0,0,0,0,0,0,0
2003/2/2 9:45,0,0,0,0,0,0,0,0
2003/2/2 10:00,0.00056199,0,0,0,0.082500132,0,0,0
2003/2/2 10:15,0,0,0,0,0,0,0,0
2003/2/2 10:30,0.000572715,0,0,0,0.084074562,0,0,0
2003/2/2 10:45,0.011126115,0,0,0,1.633313682,0,0,0
2003/2/2 11:00,0.01093521,0,0,0,1.605288828,0,0,0
2003/2/2 11:15,0.011110028,0,0,0,1.630952037,0,0,0
2003/2/2 11:30,0.007358423,0,0,0,1.080216423,0,0,0
2003/2/2 11:45,0.00603603,0,0,0,0.886089204,0,0,0
2003/2/2 12:00,0.005035388,0,0.010448585,0,0.739194885,0,1.533852278,0
2003/2/2 12:15,0.005919127,0,0.017067453,0,0.868927917,0,2.505502027,0
2003/2/2 12:30,0.004449803,0,0.016632223,0,0.653231007,0,2.441610263,0
2003/2/2 12:45,0.003967178,0,0.00779736,0,0.582381657,0,1.144652448,0
2003/2/2 13:00,0.003966105,0,0,0,0.582224214,0,0,0
2003/2/2 13:15,0.009756533,0,0,0,1.432258971,0,0,0
2003/2/2 13:30,0.004018658,0,0,0,0.589938921,0,0,0
2003/2/2 13:45,0.00471471,0,0,0,0.692119428,0,0,0
2003/2/2 14:00,0.00396825,0,0,0,0.5825391,0,0,0
2003/2/2 14:15,0,0,0,0,0,0,0,0
2003/2/2 14:30,0,0,0,0,0,0,0,0
2003/2/2 14:45,0,0,0,0,0,0,0,0
2003/2/2 15:00,0,0,0,0,0,0,0,0
2003/2/2 15:15,0,0,0,0,0,0,0,0
2003/2/2 15:30,0,0,0,0,0,0,0,0
2003/2/2 15:45,0,0,0,0,0,0,0,0
2003/2/2 16:00,0,0,0,0,0,0,0,0
2003/2/2 16:15,0,0,0,0,0,0,0,0
2003/2/2 16:30,0,0,0,0,0,0,0,0
2003/2/2 16:45,0,0,0,0,0,0,0,0
2003/2/2 17:00,0,0,0,0,0,0,0,0
2003/2/2 17:15,0,0,0,0,0,0,0,0
2003/2/2 17:30,0,0,0,0,0,0,0,0
2003/2/2 17:45,0,0,0,0,0,0,0,0
2003/2/2 18:00,0.0059202,0,0,0,0.86908536,0,0,0
2003/2/2 18:15,0.00816387,0,0,0,1.198456116,0,0,0
2003/2/2 18:30,0.007775625,0,0,0,1.14146175,0,0,0
2003/2/2 18:45,0.007156793,0,0.005349958,0,1.050617139,0,0.785373761,0
2003/2/2 19:00,0.006510075,0,0.005947633,0,0.95567901,0,0.873112451,0
2003/2/2 19:15,0.006498277,0,0.005947633,0,0.953947137,0,0.873112451,0
2003/2/2 19:30,0.009454088,0,0.001983055,0,1.387860045,0,0.291112474,0
2003/2/2 19:45,0.006502568,0,0,0,0.954576909,0,0,0
2003/2/2 20:00,0.007598662,0,0,0,1.115483655,0,0,0
2003/2/2 20:15,0.007058122,0,0,0,1.036132383,0,0,0
2003/2/2 20:30,0.008063055,0,0,0,1.183656474,0,0,0
2003/2/2 20:45,0.00751179,0,0,0,1.102730772,0,0,0
2003/2/2 21:00,0.00273273,0,0,0,0.401164764,0,0,0
2003/2/2 21:15,0,0,0,0,0,0,0,0
2003/2/2 21:30,0,0,0,0,0,0,0,0
2003/2/2 21:45,0,0,0,0,0,0,0,0
2003/2/2 22:00,0,0,0,0,0,0,0,0
2003/2/2 22:15,0,0,0,0,0,0,0,0
2003/2/2 22:30,0,0,0,0,0,0,0,0
2003/2/2 22:45,0,0,0,0,0,0,0,0
2003/2/2 23:00,0,0,0,0,0,0,0,0
2003/2/2 23:15,0,0,0,0,0,0,0,0
2003/2/2 23:30,0,0,0,0,0,0,0,0
2003/2/2 23:45,0,0,0,0,0,0,0,0
2003/2/3 0:00,0,0,0,0,0,0,0,0
2003/2/3 0:15,0,0,0,0,0,0,0,0
2003/2/3 0:30,0,0,0,0,0,0,0,0
2003/2/3 0:45,0,0,0,0,0,0,0,0
2003/2/3 1:00,0,0,0,0,0,0,0,0
2003/2/3 1:15,0,0,0,0,0,0,0,0
2003/2/3 1:30,0,0,0,0,0,0,0,0
2003/2/3 1:45,0,0,0,0,0,0,0,0
2003/2/3 2:00,0,0,0,0,0,0,0,0
2003/2/3 2:15,0,0,0,0,0,0,0,0
2003/2/3 2:30,0,0,0,0,0,0,0,0
2003/2/3 2:45,0,0,0,0,0,0,0,0
2003/2/3 3:00,0,0,0,0,0,0,0,0
2003/2/3 3:15,0,0,0,0,0,0,0,0
2003/2/3 3:30,0,0,0,0,0,0,0,0
2003/2/3 3:45,0,0,0,0,0,0,0,0
2003/2/3 4:00,0,0,0,0,0,0,0,0
2003/2/3 4:15,0,0,0,0,0,0,0,0
2003/2/3 4:30,0,0,0,0,0,0,0,0
2003/2/3 4:45,0,0,0,0,0,0,0,0
2003/2/3 5:00,0,0,0,0,0,0,0,0
2003/2/3 5:15,0,0,0,0,0,0,0,0
2003/2/3 5:30,0,0,0,0,0,0,0,0
2003/2/3 5:45,0.00603603,0,0,0,0.886089204,0,0,0
2003/2/3 6:00,0.01112826,0,0,0,1.633628568,0,0,0
2003/2/3 6:15,0.011126115,0,0.02099525,0,1.633313682,0,3.0821027,0
2003/2/3 6:30,0.011127188,0,0.03134269,0,1.633471125,0,4.601106893,0
2003/2/3 6:45,0,0,0.023608163,0,0,0,3.465678255,0
2003/2/3 7:00,0,0,0.016580117,0,0,0,2.433961249,0
2003/2/3 7:15,0,0,0.016405413,0,0,0,2.408314555,0
2003/2/3 7:30,0,0,0.015611578,0,0,0,2.291779577,0
2003/2/3 7:45,0.009604238,0,0,0,1.409902065,0,0,0
2003/2/3 8:00,0.011125042,0,0,0,1.633156239,0,0,0
2003/2/3 8:15,0.010788278,0,0,0,1.583719137,0,0,0
2003/2/3 8:30,0,0,0,0,0,0,0,0
2003/2/3 8:45,0,0,0,0,0,0,0,0
2003/2/3 9:00,0,0,0,0,0,0,0,0
2003/2/3 9:15,0,0,0,0,0,0,0,0
2003/2/3 9:30,0,0,0,0,0,0,0,0
2003/2/3 9:45,0,0,0,0,0,0,0,0
2003/2/3 10:00,0,0,0,0,0,0,0,0
2003/2/3 10:15,0,0,0,0,0,0,0,0
2003/2/3 10:30,0,0,0,0,0,0,0,0
2003/2/3 10:45,0,0,0,0,0,0,0,0
2003/2/3 11:00,0,0,0,0,0,0,0,0
2003/2/3 11:15,0,0,0,0,0,0,0,0
2003/2/3 11:30,0,0,0,0,0,0,0,0
2003/2/3 11:45,0,0,0,0,0,0,0,0
2003/2/3 12:00,0,0,0,0,0,0,0,0
2003/2/3 12:15,0,0,0,0,0,0,0,0
2003/2/3 12:30,0,0,0,0,0,0,0,0
2003/2/3 12:45,0,0,0,0,0,0,0,0
2003/2/3 13:00,0,0,0,0,0,0,0,0
2003/2/3 13:15,0.001399613,0,0,0,0.205463115,0,0,0
2003/2/3 13:30,0.008715135,0,0,0,1.279381818,0,0,0
2003/2/3 13:45,0.003967178,0,0,0,0.582381657,0,0,0
2003/2/3 14:00,0.003966105,0,0,0,0.582224214,0,0,0
2003/2/3 14:15,0.003967178,0,0,0,0.582381657,0,0,0
2003/2/3 14:30,0.003967178,0,0,0,0.582381657,0,0,0
2003/2/3 14:45,0.003966105,0,0,0,0.582224214,0,0,0
2003/2/3 15:00,0.003967178,0,0,0,0.582381657,0,0,0
2003/2/3 15:15,0.003966105,0,0,0,0.582224214,0,0,0
2003/2/3 15:30,0.003967178,0,0,0,0.582381657,0,0,0
2003/2/3 15:45,0.003967178,0,0,0,0.582381657,0,0,0
2003/2/3 16:00,0.003966105,0,0,0,0.582224214,0,0,0
2003/2/3 16:15,0.003967178,0,0,0,0.582381657,0,0,0
2003/2/3 16:30,0.001323465,0,0,0,0.194284662,0,0,0
2003/2/3 16:45,0.004356495,0,0,0,0.639533466,0,0,0
2003/2/3 17:00,0.003969322,0,0.00457298,0,0.582696543,0,0.671313464,0
2003/2/3 17:15,0.00396825,0,0.011277668,0,0.5825391,0,1.655561589,0
2003/2/3 17:30,0.003969322,0,0.013452285,0,0.582696543,0,1.974795438,0
2003/2/3 17:45,0.00396825,0,0.013826215,0,0.5825391,0,2.029688362,0
2003/2/3 18:00,0.003969322,0,0.006431902,0,0.582696543,0,0.944203287,0
2003/2/3 18:15,0.00396825,0,0.007077085,0,0.5825391,0,1.038916078,0
2003/2/3 18:30,0.005052548,0,0,0,0.741713973,0,0,0
2003/2/3 18:45,0.006150787,0,0,0,0.902935605,0,0,0
2003/2/3 19:00,0.006950873,0,0,0,1.020388083,0,0,0
2003/2/3 19:15,0.006827535,0,0,0,1.002282138,0,0,0
2003/2/3 19:30,0.006886523,0,0,0,1.010941503,0,0,0
2003/2/3 19:45,0.007845338,0,0,0,1.151695545,0,0,0
2003/2/3 20:00,0.004282493,0,0,0,0.628669899,0,0,0
2003/2/3 20:15,0,0,0,0,0,0,0,0
2003/2/3 20:30,0,0,0,0,0,0,0,0
2003/2/3 20:45,0,0,0,0,0,0,0,0
2003/2/3 21:00,0,0,0,0,0,0,0,0
2003/2/3 21:15,0,0,0,0,0,0,0,0
2003/2/3 21:30,0,0,0,0,0,0,0,0
2003/2/3 21:45,0,0,0,0,0,0,0,0
2003/2/3 22:00,0,0,0.017809183,0,0,0,2.614387991,0
2003/2/3 22:15,0,0,0.01208223,0,0,0,1.773671364,0
2003/2/3 22:30,0,0,0.007887778,0,0,0,1.157925737,0
2003/2/3 22:45,0,0,0,0,0,0,0,0
2003/2/3 23:00,0,0,0,0,0,0,0,0
2003/2/3 23:15,0,0,0,0,0,0,0,0
2003/2/3 23:30,0,0,0,0,0,0,0,0
2003/2/3 23:45,0,0,0,0,0,0,0,0
2003/2/4 0:00,0,0,0,0,0,0,0,0
2003/2/4 0:15,0,0,0,0,0,0,0,0
2003/2/4 0:30,0,0,0,0,0,0,0,0
2003/2/4 0:45,0,0,0,0,0,0,0,0
2003/2/4 1:00,0,0,0,0,0,0,0,0
2003/2/4 1:15,0,0,0,0,0,0,0,0
2003/2/4 1:30,0,0,0,0,0,0,0,0
2003/2/4 1:45,0,0,0,0,0,0,0,0
2003/2/4 2:00,0,0,0,0,0,0,0,0
2003/2/4 2:15,0,0,0,0,0,0,0,0
2003/2/4 2:30,0,0,0,0,0,0,0,0
2003/2/4 2:45,0,0,0,0,0,0,0,0
2003/2/4 3:00,0,0,0,0,0,0,0,0
2003/2/4 3:15,0,0,0,0,0,0,0,0
2003/2/4 3:30,0,0,0,0,0,0,0,0
2003/2/4 3:45,0,0,0,0,0,0,0,0
2003/2/4 4:00,0,0,0,0,0,0,0,0
2003/2/4 4:15,0,0,0,0,0,0,0,0
2003/2/4 4:30,0,0,0,0,0,0,0,0
2003/2/4 4:45,0,0,0,0,0,0,0,0
2003/2/4 5:00,0,0,0,0,0,0,0,0
2003/2/4 5:15,0,0,0,0,0,0,0,0
2003/2/4 5:30,0,0,0,0,0,0,0,0
2003/2/4 5:45,0.004887383,0,0,0,0.717467751,0,0,0
2003/2/4 6:00,0.011126115,0,0,0,1.633313682,0,0,0
2003/2/4 6:15,0.011127188,0,0.027951268,0,1.633471125,0,4.10324607,0
2003/2/4 6:30,0.011126115,0,0.03250739,0,1.633313682,0,4.772084854,0
2003/2/4 6:45,0.011126115,0,0.032498195,0,1.633313682,0,4.770735026,0
2003/2/4 7:00,0.011127188,0,0.03247061,0,1.633471125,0,4.766685548,0
2003/2/4 7:15,0.011126115,0,0.032469078,0,1.633313682,0,4.766460577,0
2003/2/4 7:30,0.011126115,0,0.032469078,0,1.633313682,0,4.766460577,0
2003/2/4 7:45,0.011125042,0,0,0,1.633156239,0,0,0
2003/2/4 8:00,0.009740445,0,0,0,1.429897326,0,0,0
2003/2/4 8:15,0.002331615,0,0,0,0.342281082,0,0,0
2003/2/4 8:30,0,0,0,0,0,0,0,0
2003/2/4 8:45,0,0,0,0,0,0,0,0
2003/2/4 9:00,0,0,0,0,0,0,0,0
2003/2/4 9:15,0,0,0,0,0,0,0,0
2003/2/4 9:30,0,0,0,0,0,0,0,0
2003/2/4 9:45,0,0,0,0,0,0,0,0
2003/2/4 10:00,0,0,0,0,0,0,0,0
2003/2/4 10:15,0,0,0,0,0,0,0,0
2003/2/4 10:30,0,0,0,0,0,0,0,0
2003/2/4 10:45,0,0,0,0,0,0,0,0
2003/2/4 11:00,0,0,0,0,0,0,0,0
2003/2/4 11:15,0,0,0,0,0,0,0,0
2003/2/4 11:30,0,0,0,0,0,0,0,0
2003/2/4 11:45,0,0,0,0,0,0,0,0
2003/2/4 12:00,0,0,0,0,0,0,0,0
2003/2/4 12:15,0,0,0,0,0,0,0,0
2003/2/4 12:30,0,0,0,0,0,0,0,0
2003/2/4 12:45,0,0,0,0,0,0,0,0
2003/2/4 13:00,0,0,0,0,0,0,0,0
2003/2/4 13:15,0,0,0,0,0,0,0,0
2003/2/4 13:30,0,0,0,0,0,0,0,0
2003/2/4 13:45,0,0,0,0,0,0,0,0
2003/2/4 14:00,0,0,0,0,0,0,0,0
2003/2/4 14:15,0,0,0,0,0,0,0,0
2003/2/4 14:30,0.000816172,0,0,0,0.119814123,0,0,0
2003/2/4 14:45,0.004755465,0,0,0,0.698102262,0,0,0
2003/2/4 15:00,0.003967178,0,0,0,0.582381657,0,0,0
2003/2/4 15:15,0.003967178,0,0.00787092,0,0.582381657,0,1.155451056,0
2003/2/4 15:30,0,0,0,0,0,0,0,0
2003/2/4 15:45,0,0,0,0,0,0,0,0
2003/2/4 16:00,0,0,0,0,0,0,0,0
2003/2/4 16:15,0,0,0,0,0,0,0,0
2003/2/4 16:30,0,0,0,0,0,0,0,0
2003/2/4 16:45,0,0,0,0,0,0,0,0
2003/2/4 17:00,0,0,0,0,0,0,0,0
2003/2/4 17:15,0,0,0.00400902,0,0,0,0.588524136,0
2003/2/4 17:30,0,0,0.031713555,0,0,0,4.655549873,0
2003/2/4 17:45,0.004151648,0,0.02305493,0,0.609461853,0,3.384463724,0
2003/2/4 18:00,0.00456885,0,0.0139764,0,0.67070718,0,2.05173552,0
2003/2/4 18:15,0.004205273,0,0.014935745,0,0.617334003,0,2.192567366,0
2003/2/4 18:30,0.004563488,0,0.013070693,0,0.669919965,0,1.918777659,0
2003/2/4 18:45,0.004859498,0,0.010355102,0,0.713374233,0,1.520129047,0
2003/2/4 19:00,0.004758683,0,0.01004094,0,0.698574591,0,1.474009992,0
2003/2/4 19:15,0.004202055,0,0.00619743,0,0.616861674,0,0.909782724,0
2003/2/4 19:30,0.004745813,0,0.00603805,0,0.696685275,0,0.88638574,0
2003/2/4 19:45,0.004732943,0,0.006071765,0,0.694795959,0,0.891335102,0
2003/2/4 20:00,0.004781205,0,0.006036518,0,0.701880894,0,0.886160769,0
2003/2/4 20:15,0.00419133,0,0.006231145,0,0.615287244,0,0.914732086,0
2003/2/4 20:30,0.004790858,0,0.006027323,0,0.703297881,0,0.884810943,0
2003/2/4 20:45,0,0,0.017441382,0,0,0,2.560394951,0
2003/2/4 21:00,0.002777775,0,0,0,0.40777737,0,0,0
2003/2/4 21:15,0.00396825,0,0,0,0.5825391,0,0,0
2003/2/4 21:30,0.003969322,0,0,0,0.582696543,0,0,0
2003/2/4 21:45,0.004900253,0,0,0,0.719357067,0,0,0
2003/2/4 22:00,0.00550407,0,0,0,0.807997476,0,0,0
2003/2/4 22:15,0.005042895,0,0,0,0.740296986,0,0,0
2003/2/4 22:30,0.005767905,0,0,0,0.846728454,0,0,0
2003/2/4 22:45,0.005669235,0,0,0,0.832243698,0,0,0
2003/2/4 23:00,0.007749885,0,0,0,1.137683118,0,0,0
2003/2/4 23:15,0.009096945,0,0,0,1.335431526,0,0,0
2003/2/4 23:30,0.0075075,0,0,0,1.102101,0,0,0
2003/2/4 23:45,0,0,0.008315345,0,0,0,1.220692646,0
2003/2/5 0:00,0,0,0.027171225,0,0,0,3.98873583,0
2003/2/5 0:15,0,0,0.02500427,0,0,0,3.670626838,0
2003/2/5 0:30,0,0,0,0,0,0,0,0
2003/2/5 0:45,0,0,0,0,0,0,0,0
2003/2/5 1:00,0,0,0,0,0,0,0,0
2003/2/5 1:15,0,0,0,0,0,0,0,0
2003/2/5 1:30,0,0,0,0,0,0,0,0
2003/2/5 1:45,0,0,0,0,0,0,0,0
2003/2/5 2:00,0,0,0,0,0,0,0,0
2003/2/5 2:15,0,0,0,0,0,0,0,0
2003/2/5 2:30,0,0,0,0,0,0,0,0
2003/2/5 2:45,0,0,0,0,0,0,0,0
2003/2/5 3:00,0,0,0,0,0,0,0,0
2003/2/5 3:15,0,0,0,0,0,0,0,0
2003/2/5 3:30,0,0,0,0,0,0,0,0
2003/2/5 3:45,0,0,0,0,0,0,0,0
2003/2/5 4:00,0,0,0,0,0,0,0,0
2003/2/5 4:15,0,0,0,0,0,0,0,0
2003/2/5 4:30,0,0,0,0,0,0,0,0
2003/2/5 4:45,0,0,0,0,0,0,0,0
2003/2/5 5:00,0,0,0,0,0,0,0,0
2003/2/5 5:15,0,0,0,0,0,0,0,0
2003/2/5 5:30,0,0,0,0,0,0,0,0
2003/2/5 5:45,0.005822602,0,0,0,0.854758047,0,0,0
2003/2/5 6:00,0.011127188,0,0,0,1.633471125,0,0,0
2003/2/5 6:15,0.011127188,0,0.018152462,0,1.633471125,0,2.664781495,0
2003/2/5 6:30,0.011126115,0,0.031615475,0,1.633313682,0,4.64115173,0
2003/2/5 6:45,0.011126115,0,0.024542987,0,1.633313682,0,3.602910564,0
2003/2/5 7:00,0.011126115,0,0.021986777,0,1.633313682,0,3.227658937,0
2003/2/5 7:15,0.011125042,0,0.023522343,0,1.633156239,0,3.453079879,0
2003/2/5 7:30,0.011126115,0,0.014315083,0,1.633313682,0,2.101454111,0
2003/2/5 7:45,0.01075074,0,0,0,1.578208632,0,0,0
2003/2/5 8:00,0.0086229,0,0,0,1.26584172,0,0,0
2003/2/5 8:15,0.006630195,0,0,0,0.973312626,0,0,0
2003/2/5 8:30,0.005204842,0,0,0,0.764070879,0,0,0
2003/2/5 8:45,0.003970395,0,0,0,0.582853986,0,0,0
2003/2/5 9:00,0.003967178,0,0,0,0.582381657,0,0,0
2003/2/5 9:15,0.003966105,0,0,0,0.582224214,0,0,0
2003/2/5 9:30,0.003969322,0,0,0,0.582696543,0,0,0
2003/2/5 9:45,0.00400257,0,0,0,0.587577276,0,0,0
2003/2/5 10:00,0.00531102,0,0,0,0.779657736,0,0,0
2003/2/5 10:15,0.005792573,0,0,0,0.850349643,0,0,0
2003/2/5 10:30,0.005176958,0,0,0,0.759977361,0,0,0
2003/2/5 10:45,0.00584298,0,0,0,0.857749464,0,0,0
2003/2/5 11:00,0.004974255,0,0,0,0.730220634,0,0,0
2003/2/5 11:15,0.003475973,0,0,0,0.510272763,0,0,0
2003/2/5 11:30,0,0,0,0,0,0,0,0
2003/2/5 11:45,0,0,0,0,0,0,0,0
2003/2/5 12:00,0,0,0,0,0,0,0,0
2003/2/5 12:15,0.00345774,0,0,0,0.507596232,0,0,0
2003/2/5 12:30,0.003966105,0,0,0,0.582224214,0,0,0
2003/2/5 12:45,0.003967178,0,0,0,0.582381657,0,0,0
2003/2/5 13:00,0.003967178,0,0,0,0.582381657,0,0,0
2003/2/5 13:15,0.003966105,0,0,0,0.582224214,0,0,0
2003/2/5 13:30,0.003967178,0,0,0,0.582381657,0,0,0
2003/2/5 13:45,0.009288923,0,0,0,1.363613823,0,0,0
2003/2/5 14:00,0.006930495,0,0,0,1.017396666,0,0,0
2003/2/5 14:15,0.005326035,0,0,0,0.781861938,0,0,0
2003/2/5 14:30,0,0,0,0,0,0,0,0
2003/2/5 14:45,0,0,0,0,0,0,0,0
2003/2/5 15:00,0,0,0,0,0,0,0,0
2003/2/5 15:15,0,0,0,0,0,0,0,0
2003/2/5 15:30,0,0,0,0,0,0,0,0
2003/2/5 15:45,0,0,0,0,0,0,0,0
2003/2/5 16:00,0.00411411,0,0,0,0.603951348,0,0,0
2003/2/5 16:15,0.002645858,0,0,0,0.388411881,0,0,0
2003/2/5 16:30,0,0,0,0,0,0,0,0
2003/2/5 16:45,0,0,0,0,0,0,0,0
2003/2/5 17:00,0,0,0,0,0,0,0,0
2003/2/5 17:15,0,0,0,0,0,0,0,0
2003/2/5 17:30,0,0,0,0,0,0,0,0
2003/2/5 17:45,0,0,0,0,0,0,0,0
2003/2/5 18:00,0,0,0,0,0,0,0,0
2003/2/5 18:15,0,0,0,0,0,0,0,0
2003/2/5 18:30,0,0,0,0,0,0,0,0
2003/2/5 18:45,0,0,0,0,0,0,0,0
2003/2/5 19:00,0.002811022,0,0.008021105,0,0.412658103,0,1.177498214,0
2003/2/5 19:15,0.01112397,0,0.005947633,0,1.632998796,0,0.873112451,0
2003/2/5 19:30,0.011125042,0,0.005947633,0,1.633156239,0,0.873112451,0
2003/2/5 19:45,0.011125042,0,0.005949165,0,1.633156239,0,0.873337422,0
2003/2/5 20:00,0.01112397,0,0.005947633,0,1.632998796,0,0.873112451,0
2003/2/5 20:15,0.011125042,0,0.005947633,0,1.633156239,0,0.873112451,0
2003/2/5 20:30,0.011125042,0,0.005949165,0,1.633156239,0,0.873337422,0
2003/2/5 20:45,0.010851555,0,0.005947633,0,1.593008274,0,0.873112451,0
2003/2/5 21:00,0.010993125,0,0.005947633,0,1.61379075,0,0.873112451,0
2003/2/5 21:15,0.011027445,0,0.005949165,0,1.618828926,0,0.873337422,0
2003/2/5 21:30,0.011125042,0,0.005972153,0,1.633156239,0,0.876711987,0
2003/2/5 21:45,0.01112397,0,0.005959892,0,1.632998796,0,0.874912219,0
2003/2/5 22:00,0.011125042,0,0,0,1.633156239,0,0,0
2003/2/5 22:15,0.011026373,0,0,0,1.618671483,0,0,0
2003/2/5 22:30,0.011108955,0,0,0,1.630794594,0,0,0
2003/2/5 22:45,0.00738309,0,0,0,1.083837612,0,0,0
2003/2/5 23:00,0,0,0.006186702,0,0,0,0.908207927,0
2003/2/5 23:15,0,0,0.00956893,0,0,0,1.404718924,0
2003/2/5 23:30,0,0,0.008818005,0,0,0,1.294483134,0
2003/2/5 23:45,0,0,0.00256847,0,0,0,0.377051396,0
2003/2/6 0:00,0.01005147,0,0,0,1.475555796,0,0,0
2003/2/6 0:15,0,0,0,0,0,0,0,0
2003/2/6 0:30,0,0,0,0,0,0,0,0
2003/2/6 0:45,0,0,0,0,0,0,0,0
2003/2/6 1:00,0,0,0,0,0,0,0,0
2003/2/6 1:15,0,0,0,0,0,0,0,0
2003/2/6 1:30,0,0,0,0,0,0,0,0
2003/2/6 1:45,0,0,0,0,0,0,0,0
2003/2/6 2:00,0,0,0,0,0,0,0,0
2003/2/6 2:15,0,0,0,0,0,0,0,0
2003/2/6 2:30,0,0,0,0,0,0,0,0
2003/2/6 2:45,0,0,0,0,0,0,0,0
2003/2/6 3:00,0,0,0,0,0,0,0,0
2003/2/6 3:15,0,0,0,0,0,0,0,0
2003/2/6 3:30,0,0,0,0,0,0,0,0
2003/2/6 3:45,0,0,0,0,0,0,0,0
2003/2/6 4:00,0,0,0,0,0,0,0,0
2003/2/6 4:15,0,0,0,0,0,0,0,0
2003/2/6 4:30,0,0,0,0,0,0,0,0
2003/2/6 4:45,0,0,0,0,0,0,0,0
2003/2/6 5:00,0,0,0,0,0,0,0,0
2003/2/6 5:15,0,0,0,0,0,0,0,0
2003/2/6 5:30,0,0,0,0,0,0,0,0
2003/2/6 5:45,0.005759325,0,0,0,0.84546891,0,0,0
2003/2/6 6:00,0.011127188,0,0.004068788,0,1.633471125,0,0.597298005,0
2003/2/6 6:15,0.011126115,0,0.03250126,0,1.633313682,0,4.771184969,0
2003/2/6 6:30,0.011126115,0,0.032504325,0,1.633313682,0,4.771634911,0
2003/2/6 6:45,0.011126115,0,0.027850122,0,1.633313682,0,4.088397982,0
2003/2/6 7:00,0.011126115,0,0.024386672,0,1.633313682,0,3.579963523,0
2003/2/6 7:15,0.011125042,0,0.021104057,0,1.633156239,0,3.098075641,0
2003/2/6 7:30,0.009546323,0,0.019786107,0,1.401400143,0,2.904600581,0
2003/2/6 7:45,0.009140918,0,0.017665127,0,1.341886689,0,2.593240717,0
2003/2/6 8:00,0.005732512,0,0.011833965,0,0.841532835,0,1.737226062,0
2003/2/6 8:15,0.00904761,0,0,0,1.328189148,0,0,0
2003/2/6 8:30,0.00367224,0,0,0,0.539084832,0,0,0
2003/2/6 8:45,0,0,0,0,0,0,0,0
2003/2/6 9:00,0,0,0,0,0,0,0,0
2003/2/6 9:15,0,0,0,0,0,0,0,0
2003/2/6 9:30,0,0,0,0,0,0,0,0
2003/2/6 9:45,0,0,0,0,0,0,0,0
2003/2/6 10:00,0,0,0,0,0,0,0,0
2003/2/6 10:15,0,0,0,0,0,0,0,0
2003/2/6 10:30,0,0,0,0,0,0,0,0
2003/2/6 10:45,0,0,0,0,0,0,0,0
2003/2/6 11:00,0,0,0,0,0,0,0,0
2003/2/6 11:15,0.004282493,0,0,0,0.628669899,0,0,0
2003/2/6 11:30,0.004553835,0,0,0,0.668502978,0,0,0
2003/2/6 11:45,0.004078717,0,0,0,0.598755729,0,0,0
2003/2/6 12:00,0.010284203,0,0,0,1.509720927,0,0,0
2003/2/6 12:15,0.01066494,0,0,0,1.565613192,0,0,0
2003/2/6 12:30,0.0097383,0,0,0,1.42958244,0,0,0
2003/2/6 12:45,0.007303725,0,0,0,1.07218683,0,0,0
2003/2/6 13:00,0.00593736,0,0,0,0.871604448,0,0,0
2003/2/6 13:15,0.005018227,0,0,0,0.736675797,0,0,0
2003/2/6 13:30,0.00396825,0,0,0,0.5825391,0,0,0
2003/2/6 13:45,0.003970395,0,0,0,0.582853986,0,0,0
2003/2/6 14:00,0.003967178,0,0,0,0.582381657,0,0,0
2003/2/6 14:15,0.000306735,0,0,0,0.045028698,0,0,0
2003/2/6 14:30,0.004754392,0,0,0,0.697944819,0,0,0
2003/2/6 14:45,0.003966105,0,0,0,0.582224214,0,0,0
2003/2/6 15:00,0.001322393,0,0,0,0.194127219,0,0,0
2003/2/6 15:15,0,0,0,0,0,0,0,0
2003/2/6 15:30,0,0,0,0,0,0,0,0
2003/2/6 15:45,0,0,0,0,0,0,0,0
2003/2/6 16:00,0,0,0,0,0,0,0,0
2003/2/6 16:15,0,0,0,0,0,0,0,0
2003/2/6 16:30,0,0,0,0,0,0,0,0
2003/2/6 16:45,0,0,0,0,0,0,0,0
2003/2/6 17:00,0,0,0,0,0,0,0,0
2003/2/6 17:15,0,0,0,0,0,0,0,0
2003/2/6 17:30,0,0,0,0,0,0,0,0
2003/2/6 17:45,0,0,0,0,0,0,0,0
2003/2/6 18:00,0.003438435,0,0,0,0.504762258,0,0,0